www.pogodaiklimat.ru

Погода и климат >> Архив погоды >> Бразилия >> Пара >> Салинополис


ПОГОДА в Салинополисе

  • Прогноз погоды в Салинополисе
  • Монитор погоды в Салинополисе

АРХИВ ПОГОДЫ в Салинополисе

Время (UTC), дата Ветер
(напр.,м/с)
 
Видим.   Явления Облачность Т
(С)
Тd
(С)
f
(%)
Тe
(С)
Тes
(С)
Комфортность P
(гПа)
Po
(гПа)
Тmin
(С)
Tmax
(С)
R
(мм)
R24
(мм)
S
(см)
22 14.09 В 1
{4}
н/о н/о +26.8 +22.6 78 +35 +35 очень
душно
1011.2 1008.5 0.2
23 14.09 В 2
{5}
н/о н/о +26.8 +22.4 77 +35 +35 очень
душно
1011.8 1009.1
00 15.09 В 1
{4}
н/о н/о +26.7 +22.5 78 +35 +35 очень
душно
1012.4 1009.7
01 15.09 В 1
{3}
н/о н/о +26.7 +22.5 78 +35 +35 очень
душно
1012.8 1010.1
02 15.09 СВ 1
{3}
н/о н/о +26.6 +22.6 79 +35 +35 очень
душно
1012.8 1010.1
03 15.09 СВ 1
{3}
н/о н/о +26.4 +22.3 78 +34 +34 очень
душно
1012.3 1009.6
04 15.09 СВ 1
{3}
н/о н/о +26.3 +22.3 79 +34 +34 очень
душно
1011.7 1009.0
05 15.09 СВ 1
{3}
н/о н/о +26.1 +21.9 78 +34 +34 очень
душно
1010.8 1008.1
06 15.09 СВ 1
{3}
н/о н/о +26.0 +21.9 78 +33 +33 очень
душно
1010.6 1007.9
07 15.09 СВ 1
{3}
н/о н/о +26.2 +21.7 76 +34 +34 очень
душно
1010.8 1008.1
08 15.09 СВ 1
{3}
н/о н/о +26.3 +22.0 77 +34 +34 очень
душно
1011.0 1008.3
09 15.09 СВ 1
{4}
н/о н/о +26.2 +22.0 78 +34 +34 очень
душно
1011.3 1008.6
10 15.09 СВ 2
{3}
н/о н/о +27.1 +22.3 75 +35 +35 очень
душно
1011.8 1009.1
11 15.09 СВ 1
{4}
н/о н/о +28.0 +22.4 72 +37 +37 очень
душно
1012.4 1009.7
12 15.09 СВ 2
{4}
н/о н/о +28.4 +21.9 68 +37 +37 очень
душно
1013.2 1010.5
13 15.09 СВ 1
{4}
н/о н/о +29.2 +22.6 68 +39 +39 очень
душно
1013.4 1010.7
14 15.09 СВ 2
{4}
н/о н/о +29.1 +22.4 67 +38 +38 очень
душно
1013.1 1010.4
15 15.09 СВ 2
{4}
н/о н/о +29.7 +22.7 66 +39 +39 очень
душно
1012.4 1009.8
16 15.09 В 1
{4}
н/о н/о +29.7 +21.8 63 +38 +38 очень
душно
1011.5 1008.9
17 15.09 СВ 2
{4}
н/о н/о +30.2 +22.5 63 +39 +39 очень
душно
1010.7 1008.1
18 15.09 СВ 3
{4}
н/о н/о +29.4 +22.7 67 +39 +39 очень
душно
1010.3 1007.7
19 15.09 В 2
{5}
н/о н/о +29.0 +22.4 68 +38 +38 очень
душно
1010.3 1007.7
20 15.09 В 2
{5}
н/о н/о +28.2 +22.5 71 +37 +37 очень
душно
1010.3 1007.6
21 15.09 В 2
{5}
н/о н/о +27.4 +22.3 74 +36 +36 очень
душно
1010.4 1007.7
22 15.09 В 1
{4}
н/о н/о +27.1 +22.2 75 +35 +35 очень
душно
1010.9 1008.2
23 15.09 В 2
{4}
н/о н/о +26.9 +22.5 77 +35 +35 очень
душно
1011.2 1008.5
00 16.09 В 1
{4}
н/о н/о +26.9 +22.5 77 +35 +35 очень
душно
1011.4 1008.7
01 16.09 В 1
{4}
н/о н/о +26.8 +22.4 77 +35 +35 очень
душно
1012.0 1009.3
02 16.09 В 1
{5}
н/о н/о +26.6 +22.3 77 +35 +35 очень
душно
1012.0 1009.3
03 16.09 В 1
{3}
н/о н/о +26.6 +22.3 77 +35 +35 очень
душно
1011.7 1009.0
04 16.09 СВ 1
{3}
н/о н/о +26.4 +22.1 77 +34 +34 очень
душно
1010.9 1008.2
05 16.09 СВ 1
{4}
н/о н/о +26.2 +22.2 79 +34 +34 очень
душно
1010.2 1007.5
06 16.09 СВ 1
{3}
н/о н/о +26.1 +22.4 80 +34 +34 очень
душно
1009.9 1007.2
07 16.09 штиль 0
{3}
н/о н/о +25.9 +22.4 81 +34 +34 очень
душно
1010.3 1007.6
08 16.09 штиль 0
{2}
н/о н/о +26.0 +22.4 81 +34 +34 очень
душно
1010.5 1007.8
09 16.09 СВ 1
{3}
н/о н/о +26.3 +22.4 79 +34 +34 очень
душно
1011.1 1008.4
10 16.09 В 2
{4}
н/о н/о +27.0 +22.5 76 +35 +35 очень
душно
1011.6 1008.9
11 16.09 СВ 3
{5}
н/о н/о +27.8 +21.9 70 +36 +36 очень
душно
1012.1 1009.4
12 16.09 В 3
{6}
н/о н/о +29.0 +22.1 66 +37 +37 очень
душно
1012.7 1010.0
13 16.09 СВ 3
{6}
н/о н/о +29.5 +22.4 66 +39 +39 очень
душно
1012.9 1010.3
14 16.09 В 3
{6}
н/о н/о +29.8 +22.2 64 +39 +39 очень
душно
1012.7 1010.1
15 16.09 В 2
{5}
н/о н/о +29.6 +23.0 68 +40 +40 очень
душно
1012.1 1009.5
16 16.09 В 3
{6}
н/о н/о +29.8 +22.7 66 +39 +39 очень
душно
1011.3 1008.7
17 16.09 В 3
{6}
н/о н/о +30.0 +23.0 66 +40 +40 очень
душно
1010.3 1007.7
18 16.09 В 3
{5}
н/о н/о +29.6 +23.0 68 +40 +40 очень
душно
1009.8 1007.2
19 16.09 В 2
{5}
н/о н/о +29.6 +23.3 69 +40 +40 очень
душно
1009.6 1007.0
20 16.09 В 2
{6}
н/о н/о +28.6 +23.0 72 +38 +38 очень
душно
1009.6 1007.0
21 16.09 В 2
{6}
н/о н/о +27.6 +23.0 76 +37 +37 очень
душно
1010.0 1007.3
22 16.09 В 2
{5}
н/о н/о +27.4 +22.7 76 +36 +36 очень
душно
1010.8 1008.1
23 16.09 В 2
{4}
н/о н/о +27.4 +22.5 75 +36 +36 очень
душно
1011.4 1008.7
00 17.09 В 1
{4}
н/о н/о +27.2 +22.3 75 +36 +36 очень
душно
1011.7 1009.0
01 17.09 В 2
{5}
н/о н/о +27.1 +22.2 75 +35 +35 очень
душно
1012.0 1009.3
02 17.09 В 2
{5}
н/о н/о +27.1 +22.2 75 +35 +35 очень
душно
1012.1 1009.4
03 17.09 В 1
{5}
н/о н/о +26.9 +22.4 76 +35 +35 очень
душно
1011.7 1009.0
04 17.09 В 2
{5}
н/о н/о +26.7 +22.3 77 +35 +35 очень
душно
1010.9 1008.2
05 17.09 СВ 1
{4}
н/о н/о +26.4 +22.2 78 +34 +34 очень
душно
1009.9 1007.2
06 17.09 СВ 2
{4}
н/о н/о +26.4 +22.1 77 +34 +34 очень
душно
1009.8 1007.1
07 17.09 СВ 1
{4}
н/о н/о +26.3 +22.3 79 +34 +34 очень
душно
1009.9 1007.2
08 17.09 СВ 1
{3}
н/о н/о +26.5 +22.5 79 +35 +35 очень
душно
1010.3 1007.6
09 17.09 СВ 2
{4}
н/о н/о +26.6 +22.2 77 +35 +35 очень
душно
1010.7 1008.0
10 17.09 СВ 2
{4}
н/о н/о +27.0 +22.4 76 +35 +35 очень
душно
1011.0 1008.3
11 17.09 В 3
{5}
н/о н/о +27.4 +22.4 74 +36 +36 очень
душно
1011.8 1009.1
12 17.09 СВ 3
{6}
н/о н/о +29.0 +23.2 71 +39 +39 очень
душно
1012.4 1009.7
13 17.09 В 3
{6}
н/о н/о +29.1 +22.5 68 +38 +38 очень
душно
1012.2 1009.6
14 17.09 В 3
{5}
н/о н/о +30.0 +22.5 64 +39 +39 очень
душно
1012.3 1009.7
15 17.09 В 3
{5}
н/о н/о +30.1 +23.2 67 +41 +41 опасность
перегрева
1012.2 1009.6
16 17.09 В 2
{5}
н/о н/о +28.3 +24.4 79 +40 +40 очень
душно
1011.5 1008.8 0.6
17 17.09 В 2
{6}
н/о н/о +29.9 +23.0 67 +40 +40 очень
душно
1010.3 1007.7 0.2
18 17.09 В 2
{6}
н/о н/о +29.5 +23.2 69 +40 +40 очень
душно
1009.7 1007.1
19 17.09 В 3
{6}
н/о н/о +28.5 +22.7 71 +38 +38 очень
душно
1009.6 1007.0
20 17.09 В 2
{5}
н/о н/о +28.5 +22.9 72 +38 +38 очень
душно
1009.9 1007.3
21 17.09 В 2
{5}
н/о н/о +27.5 +22.6 75 +36 +36 очень
душно
1010.1 1007.4
22 17.09 В 2
{5}
н/о н/о +27.2 +22.5 76 +36 +36 очень
душно
1010.6 1007.9
23 17.09 В 2
{5}
н/о н/о +27.2 +22.7 76 +36 +36 очень
душно
1010.7 1008.0
00 18.09 В 1
{6}
н/о н/о +27.0 +22.7 77 +36 +36 очень
душно
1010.9 1008.2
01 18.09 В 2
{5}
н/о н/о +26.9 +22.6 77 +35 +35 очень
душно
1011.2 1008.5
02 18.09 В 2
{5}
н/о н/о +26.8 +22.6 78 +35 +35 очень
душно
1011.2 1008.5
03 18.09 В 2
{5}
н/о н/о +26.7 +22.4 77 +35 +35 очень
душно
1010.5 1007.8
04 18.09 В 1
{4}
н/о н/о +26.4 +22.5 79 +35 +35 очень
душно
1009.9 1007.2
05 18.09 В 2
{5}
н/о н/о +26.5 +22.0 76 +34 +34 очень
душно
1009.4 1006.7
06 18.09 В 2
{5}
н/о н/о +26.4 +22.0 77 +34 +34 очень
душно
1009.0 1006.3
07 18.09 В 1
{4}
н/о н/о +26.3 +22.1 78 +34 +34 очень
душно
1009.0 1006.3
08 18.09 В 2
{4}
н/о н/о +26.2 +22.1 78 +34 +34 очень
душно
1009.2 1006.5
09 18.09 В 2
{5}
н/о н/о +26.4 +22.2 78 +34 +34 очень
душно
1009.4 1006.7
10 18.09 В 2
{5}
н/о н/о +26.8 +22.1 75 +35 +35 очень
душно
1009.8 1007.1
11 18.09 В 2
{5}
н/о н/о +28.5 +22.7 71 +38 +38 очень
душно
1010.5 1007.8
12 18.09 В 2
{6}
н/о н/о +28.9 +22.3 68 +38 +38 очень
душно
1011.1 1008.5
13 18.09 В 3
{6}
н/о н/о +29.4 +22.1 65 +38 +38 очень
душно
1011.4 1008.8
14 18.09 В 3
{6}
н/о н/о +29.5 +22.1 64 +38 +38 очень
душно
1011.1 1008.5
15 18.09 В 3
{6}
н/о н/о +29.6 +22.3 65 +39 +39 очень
душно
1010.5 1007.9
16 18.09 В 2
{5}
н/о н/о +30.1 +22.5 64 +39 +39 очень
душно
1010.0 1007.4
17 18.09 В 3
{6}
н/о н/о +29.8 +21.8 62 +38 +38 очень
душно
1009.5 1006.9
18 18.09 В 3
{6}
н/о н/о +29.8 +22.5 65 +39 +39 очень
душно
1009.0 1006.4
19 18.09 В 3
{6}
н/о н/о +28.7 +22.3 68 +37 +37 очень
душно
1008.8 1006.2
20 18.09 В 2
{6}
н/о н/о +28.2 +22.3 70 +37 +37 очень
душно
1009.0 1006.4
21 18.09 В 2
{5}
н/о н/о +27.5 +22.1 72 +36 +36 очень
душно
1009.4 1006.7
22 18.09 В 2
{6}
н/о н/о +27.2 +22.0 73 +35 +35 очень
душно
1010.0 1007.3
23 18.09 В 2
{5}
н/о н/о +27.0 +22.0 74 +35 +35 очень
душно
1010.2 1007.5
00 19.09 В 2
{6}
н/о н/о +26.9 +22.1 75 +35 +35 очень
душно
1010.5 1007.8
01 19.09 В 2
{5}
н/о н/о +26.9 +22.0 75 +35 +35 очень
душно
1011.0 1008.3
02 19.09 В 2
{5}
н/о н/о +26.7 +21.9 75 +34 +34 очень
душно
1010.5 1007.8
03 19.09 В 2
{5}
н/о н/о +26.6 +22.0 76 +34 +34 очень
душно
1010.4 1007.7
04 19.09 В 2
{4}
н/о н/о +26.4 +21.6 75 +34 +34 очень
душно
1009.7 1007.0
05 19.09 В 1
{4}
н/о н/о +26.4 +21.7 75 +34 +34 очень
душно
1009.1 1006.4
06 19.09 В 1
{3}
н/о н/о +26.4 +21.8 76 +34 +34 очень
душно
1009.0 1006.3
07 19.09 В 1
{4}
н/о н/о +26.4 +21.8 76 +34 +34 очень
душно
1009.1 1006.4
08 19.09 В 1
{4}
н/о н/о +26.2 +21.8 77 +34 +34 очень
душно
1009.3 1006.6
09 19.09 В 1
{3}
н/о н/о +26.3 +21.6 75 +34 +34 очень
душно
1009.7 1007.0
10 19.09 В 2
{4}
н/о н/о +27.3 +21.9 72 +35 +35 очень
душно
1010.2 1007.5
11 19.09 В 2
{4}
н/о н/о +27.9 +21.9 70 +36 +36 очень
душно
1010.8 1008.1
12 19.09 В 2
{5}
н/о н/о +29.0 +22.0 66 +37 +37 очень
душно
1011.1 1008.5
13 19.09 СВ 3
{6}
н/о н/о +29.6 +21.9 63 +38 +38 очень
душно
1011.2 1008.6
14 19.09 В 3
{6}
н/о н/о +29.6 +21.6 62 +38 +38 очень
душно
1011.2 1008.6
15 19.09 В 3
{6}
н/о н/о +30.1 +22.4 63 +39 +39 очень
душно
1010.9 1008.3
16 19.09 В 2
{5}
н/о н/о +29.9 +22.4 64 +39 +39 очень
душно
1010.2 1007.6
17 19.09 В 2
{5}
н/о н/о +30.4 +22.3 62 +39 +39 очень
душно
1009.7 1007.1
18 19.09 В 3
{5}
н/о н/о +30.3 +22.6 63 +40 +40 очень
душно
1009.5 1006.9
19 19.09 В 2
{5}
н/о н/о +29.7 +22.5 65 +39 +39 очень
душно
1009.5 1006.9
20 19.09 В 3
{5}
н/о н/о +28.5 +22.6 70 +37 +37 очень
душно
1009.7 1007.1
21 19.09 В 2
{5}
н/о н/о +27.5 +22.1 72 +36 +36 очень
душно
1010.1 1007.4
22 19.09 В 1
{5}
н/о н/о +27.1 +22.1 74 +35 +35 очень
душно
1010.4 1007.7
23 19.09 В 2
{5}
н/о н/о +27.0 +22.2 75 +35 +35 очень
душно
1010.8 1008.1
00 20.09 СВ 2
{5}
н/о н/о +26.8 +22.4 77 +35 +35 очень
душно
1011.1 1008.4
01 20.09 В 2
{4}
н/о н/о +26.7 +22.2 76 +35 +35 очень
душно
1011.6 1008.9
02 20.09 В 2
{5}
н/о н/о +26.7 +22.1 76 +35 +35 очень
душно
1011.4 1008.7
03 20.09 В 1
{4}
н/о н/о +26.4 +22.2 78 +34 +34 очень
душно
1010.8 1008.1
04 20.09 В 2
{5}
н/о н/о +26.4 +22.0 77 +34 +34 очень
душно
1010.0 1007.3
05 20.09 В 2
{4}
н/о н/о +26.3 +21.9 77 +34 +34 очень
душно
1009.7 1007.0
06 20.09 В 2
{4}
н/о н/о +26.2 +21.8 77 +34 +34 очень
душно
1009.6 1006.9
07 20.09 СВ 1
{5}
н/о н/о +26.0 +22.0 79 +34 +34 очень
душно
1009.5 1006.8
08 20.09 СВ 2
{4}
н/о н/о +26.2 +22.0 78 +34 +34 очень
душно
1009.8 1007.1
09 20.09 СВ 2
{4}
н/о н/о +26.2 +21.9 77 +34 +34 очень
душно
1010.2 1007.5
10 20.09 В 1
{4}
н/о н/о +27.1 +22.3 75 +35 +35 очень
душно
1011.2 1008.5
11 20.09 СВ 2
{5}
н/о н/о +28.4 +22.5 70 +37 +37 очень
душно
1011.8 1009.1
12 20.09 В 3
{5}
н/о н/о +29.1 +22.6 68 +38 +38 очень
душно
1012.7 1010.0
14 20.09 В 3
{6}
н/о н/о +29.8 +22.5 65 +39 +39 очень
душно
1013.0 1010.4
15 20.09 В 3
{6}
н/о н/о +29.7 +22.3 65 +39 +39 очень
душно
1012.4 1009.8
16 20.09 В 2
{6}
н/о н/о +30.0 +22.1 63 +39 +39 очень
душно
1011.8 1009.2
17 20.09 В 2
{5}
н/о н/о +30.3 +22.3 62 +39 +39 очень
душно
1011.2 1008.6
18 20.09 В 2
{6}
н/о н/о +29.8 +22.6 65 +39 +39 очень
душно
1011.0 1008.4
19 20.09 В 3
{5}
н/о н/о +28.8 +22.8 70 +38 +38 очень
душно
1010.9 1008.3
20 20.09 СВ 2
{5}
н/о н/о +28.2 +22.4 71 +37 +37 очень
душно
1011.1 1008.4
21 20.09 СВ 2
{5}
н/о н/о +27.4 +22.1 73 +36 +36 очень
душно
1011.1 1008.4
22 20.09 СВ 2
{5}
н/о н/о +27.1 +22.2 75 +35 +35 очень
душно
1011.5 1008.8
23 20.09 В 2
{4}
н/о н/о +27.1 +22.5 76 +36 +36 очень
душно
1012.1 1009.4
00 21.09 В 1
{4}
н/о н/о +27.0 +22.6 77 +36 +36 очень
душно
1012.8 1010.1
01 21.09 В 1
{4}
н/о н/о +27.0 +22.3 75 +35 +35 очень
душно
1013.6 1010.9
02 21.09 В 1
{4}
н/о н/о +26.7 +22.3 77 +35 +35 очень
душно
1013.1 1010.4
03 21.09 СВ 1
{3}
н/о н/о +26.5 +22.3 78 +35 +35 очень
душно
1012.6 1009.9
04 21.09 СВ 1
{4}
н/о н/о +26.4 +22.5 79 +35 +35 очень
душно
1012.0 1009.3
05 21.09 СВ 1
{4}
н/о н/о +26.4 +22.4 79 +35 +35 очень
душно
1011.6 1008.9
06 21.09 СВ 1
{3}
н/о н/о +26.2 +22.1 78 +34 +34 очень
душно
1011.1 1008.4
07 21.09 СВ 1
{3}
н/о н/о +26.2 +22.3 79 +34 +34 очень
душно
1010.9 1008.2
08 21.09 СВ 1
{4}
н/о н/о +26.3 +22.5 80 +35 +35 очень
душно
1010.6 1007.9
09 21.09 штиль 0
{4}
н/о н/о +26.4 +22.4 79 +35 +35 очень
душно
1011.0 1008.3
10 21.09 СВ 2
{4}
н/о н/о +26.9 +22.5 77 +35 +35 очень
душно
1011.7 1009.0
11 21.09 В 2
{5}
н/о н/о +28.1 +21.6 68 +36 +36 очень
душно
1012.3 1009.6
12 21.09 В 3
{5}
н/о н/о +28.8 +22.0 67 +37 +37 очень
душно
1012.7 1010.0
13 21.09 В 2
{5}
н/о н/о +29.6 +22.5 66 +39 +39 очень
душно
1012.7 1010.1
14 21.09 В 2
{6}
н/о н/о +30.4 +23.1 65 +41 +41 опасность
перегрева
1012.5 1009.9
15 21.09 В 3
{6}
н/о н/о +30.3 +22.5 63 +40 +40 очень
душно
1012.1 1009.5
16 21.09 В 2
{5}
н/о н/о +29.9 +22.7 65 +39 +39 очень
душно
1011.2 1008.6
17 21.09 В 3
{5}
н/о н/о +30.3 +22.8 64 +40 +40 очень
душно
1010.5 1007.9
18 21.09 В 3
{5}
н/о н/о +29.6 +22.5 66 +39 +39 очень
душно
1010.1 1007.5
19 21.09 В 2
{5}
н/о н/о +28.7 +22.5 69 +38 +38 очень
душно
1010.0 1007.4
20 21.09 В 3
{6}
н/о н/о +28.3 +22.1 69 +37 +37 очень
душно
1010.2 1007.5

 

Местоположение метеостанции Салинополис (Пара, Бразилия): широта -0.62 долгота -47.35 высота над уровнем моря 23 м.

В архиве по умолчанию представлена погода в Салинополисе за последнюю неделю. Архивные данные за месяц целиком и за предыдущие месяцы, начиная с января 2011 года, Вы можете получить, выбрав интересующий диапазон дат из раскрывающегося списка и нажав кнопку "Ввод!".


*Определитесь, кто Вы:
робот инопланетянин человек

Внимание! Время в таблицах - всемирное. Для получения местного времени необходимо прибавить поправку, которая равна -3 ч.

Смотрите также архив погоды в соседних городах и на ближайших метеорологических станциях:

Погода в Салинополисе (Пара, Бразилия) (3 км)
Погода в Тракуатеуа (Пара, Бразилия) (69 км)
Погода в Брагансе (Пара, Бразилия) (79 км)
Погода в Кастаньяле (Пара, Бразилия) (101 км)
Погода в Капитан-Посу (Пара, Бразилия) (128 км)
Погода в Сори (Пара, Бразилия) (132 км)
Погода в Сори (Пара, Бразилия) (134 км)
Погода в Белене (Пара, Бразилия) (149 км)
Погода в Белеме (Пара, Бразилия) (151 км)
Погода в Томе-Асу (Пара, Бразилия) (248 км)

Пояснения к столбцам:

Ветер - указаны скорость ветра в м/с - средняя за 10 мин, порывы в срок и между сроками (в фигурных скобках) и направление, откуда дует ветер: С - северный, СВ - северо-восточный, В - восточный, ЮВ - юго-восточный, Ю - южный, ЮЗ - юго-западный, З - западный, СЗ - северо-западный.
Видимость - горизонтальная дальность видимости в метрах или километрах. При видимости от 1 до 10 км при отсутствии осадков обычно наблюдается дымка, при ухудшении видимости до 1 км и менее - туман. В сухую погоду видимость может ухудшаться дымом, пылью или мглою.
Явления - указаны атмосферные явления, наблюдавшиеся в срок или в последний час перед сроком; фигурными скобками обозначены явления, наблюдавшиеся между сроками (за 1-3 часа до срока); квадратными скобками обозначены град или гололедные отложения с указанием их диаметра в мм.
Облачность - указаны через наклонную черту общая и нижняя облачность в баллах и высота нижней границы облаков в метрах; квадратными скобками обозначены формы облаков: Ci - перистые, Cs - перисто-слоистые, Cc - перисто-кучевые, Ac - высококучевые, As - высокослоистые, Sc - слоисто-кучевые, Ns - слоисто-дождевые, Cu - кучевые, Cb - кучево-дождевые. Подробнее классификацию облаков см. в Атласе облаков (PDF).
T - Температура воздуха - температура, измеренная на высоте 2 м над землей.
Td - Температура точки росы - температура, при понижении до которой содержащийся в воздухе водяной пар достигнет насыщения.
f - Относительная влажность воздуха - влажноcть воздуха, измеренная на высоте 2 м над землей.
Te - Эффективная температура - температура, которую ощущает одетый по сезону человек в тени. Характеристика душности погоды. При расчете учитывается влияние влажности воздуха и скорости ветра на теплоощущения человека.
Tes - Эффективная температура на солнце - температура, которую ощущает человек, с поправкой на солнечный нагрев. Характеристика знойности погоды. Зависит от высоты солнца над горизонтом, облачности и скорости ветра. Ночью, в пасмурную погоду, а также при ветре 12 м/с и более поправка равна нулю.
P - Атмосферное давление - приведенное к уровню моря атмосферное давление.
Po - Атмосферное давление - измеренное на уровне метеостанции атмосферное давление.
Tmin - Минимальная температура - минимум температуры воздуха на высоте 2 м над землей.
Tmax - Максимальная температура - максимум температуры воздуха на высоте 2 м над землей.
R - Количество осадков - Количество выпавших осадков за период времени, мм. При наведении курсора мыши на число - период времени, за который выпало указанное количество осадков.
R24 - Количество осадков - Количество выпавших осадков за 24 часа, мм.
S - Снежный покров - Высота снежного покрова, см. При наведении курсора мыши на число - состояние снежного покрова и степень покрытия местности в баллах.